• In United Kingdom
  • List of Countries
  • For 7 days
  • Water Temperature
  • Satellite Maps
  • Weather Map
  • Weather Widgets
  • user-avatar
    Login

    Hourly Weather Telavi

    Today, 24 November, Friday

    Time Temperature Precipitation Wind Pressure Humidity
    00:00 +1°C° 0 mm 1 mps 708 mmHg 73%
    01:00 +1°C° 0 mm 1 mps 708 mmHg 72%
    02:00 +1°C° 0 mm 1 mps 709 mmHg 72%
    03:00 +1°C° 0 mm 1 mps 708 mmHg 68%
    04:00 0°C° 0 mm 1 mps 708 mmHg 68%
    05:00 0°C° 0 mm 1 mps 708 mmHg 68%
    06:00 0°C° 0 mm 1 mps 709 mmHg 68%
    07:00 +1°C° 0 mm 1 mps 709 mmHg 65%
    08:00 +1°C° 0 mm 1 mps 709 mmHg 62%
    09:00 +2°C° 0 mm 1 mps 709 mmHg 56%
    10:00 +3°C° 0 mm 1 mps 709 mmHg 53%
    11:00 +4°C° 0 mm 1 mps 709 mmHg 49%
    12:00 +4°C° 0 mm 2 mps 709 mmHg 46%
    13:00 +5°C° 0 mm 1 mps 709 mmHg 45%
    14:00 +5°C° 0 mm 1 mps 709 mmHg 45%
    15:00 +5°C° 0 mm 1 mps 709 mmHg 44%
    16:00 +4°C° 0 mm 1 mps 709 mmHg 47%
    17:00 +3°C° 0 mm 1 mps 709 mmHg 50%
    18:00 +2°C° 0 mm 1 mps 710 mmHg 53%
    19:00 +2°C° 0 mm 1 mps 710 mmHg 53%
    20:00 +1°C° 0 mm 1 mps 710 mmHg 53%
    21:00 +1°C° 0 mm 1 mps 710 mmHg 52%
    22:00 +1°C° 0 mm 1 mps 710 mmHg 53%
    23:00 +1°C° 0 mm 1 mps 711 mmHg 53%

    Tomorrow, 25 November, Saturday

    Time Temperature Precipitation Wind Pressure Humidity
    00:00 0°C° 0 mm 1 mps 711 mmHg 53%
    01:00 0°C° 0 mm 1 mps 711 mmHg 55%
    02:00 0°C° 0 mm 1 mps 711 mmHg 56%
    03:00 0°C° 0 mm 1 mps 712 mmHg 57%
    04:00 0°C° 0 mm 1 mps 712 mmHg 59%
    05:00 0°C° 0 mm 1 mps 713 mmHg 62%
    06:00 0°C° 0 mm 1 mps 713 mmHg 64%
    07:00 -1°C° 0 mm 2 mps 714 mmHg 61%
    08:00 +1°C° 0 mm 2 mps 714 mmHg 59%
    09:00 +1°C° 0 mm 2 mps 715 mmHg 56%
    10:00 +1°C° 0 mm 3 mps 715 mmHg 50%
    11:00 +3°C° 0 mm 3 mps 715 mmHg 45%
    12:00 +4°C° 0 mm 3 mps 715 mmHg 39%
    13:00 +4°C° 0 mm 3 mps 715 mmHg 38%
    14:00 +4°C° 0 mm 3 mps 715 mmHg 38%
    15:00 +5°C° 0 mm 2 mps 715 mmHg 37%
    16:00 +4°C° 0 mm 2 mps 716 mmHg 42%
    17:00 +2°C° 0 mm 2 mps 716 mmHg 47%
    18:00 +2°C° 0 mm 1 mps 716 mmHg 52%
    19:00 +2°C° 0 mm 1 mps 716 mmHg 53%
    20:00 +1°C° 0 mm 1 mps 716 mmHg 53%
    21:00 +1°C° 0 mm 1 mps 716 mmHg 53%
    22:00 +1°C° 0 mm 1 mps 716 mmHg 53%
    23:00 0°C° 0 mm 1 mps 716 mmHg 52%

    Day after tomorrow, 26 November, Sunday

    Time Temperature Precipitation Wind Pressure Humidity
    00:00 0°C° 0 mm 1 mps 716 mmHg 52%
    01:00 0°C° 0 mm 1 mps 716 mmHg 51%
    02:00 0°C° 0 mm 1 mps 716 mmHg 50%
    03:00 -1°C° 0 mm 1 mps 716 mmHg 49%
    04:00 -1°C° 0 mm 1 mps 716 mmHg 48%
    05:00 -1°C° 0 mm 1 mps 716 mmHg 47%
    06:00 -1°C° 0 mm 1 mps 716 mmHg 46%
    07:00 0°C° 0 mm 1 mps 716 mmHg 43%
    08:00 +1°C° 0 mm 1 mps 715 mmHg 39%
    09:00 +2°C° 0 mm 1 mps 715 mmHg 36%
    10:00 +3°C° 0 mm 1 mps 715 mmHg 34%
    11:00 +4°C° 0 mm 1 mps 714 mmHg 32%
    12:00 +5°C° 0 mm 1 mps 713 mmHg 30%
    13:00 +5°C° 0 mm 1 mps 713 mmHg 31%
    14:00 +5°C° 0 mm 1 mps 712 mmHg 31%
    15:00 +6°C° 0 mm 1 mps 712 mmHg 31%
    16:00 +4°C° 0 mm 1 mps 712 mmHg 35%
    17:00 +3°C° 0 mm 1 mps 712 mmHg 38%
    18:00 +2°C° 0 mm 1 mps 713 mmHg 41%
    19:00 +2°C° 0 mm 1 mps 713 mmHg 42%
    20:00 +2°C° 0 mm 1 mps 713 mmHg 43%
    21:00 +1°C° 0 mm 1 mps 713 mmHg 43%
    22:00 +1°C° 0 mm 1 mps 712 mmHg 43%
    23:00 -1°C° 0 mm 2 mps 712 mmHg 43%

    27 November, Monday

    Time Temperature Precipitation Wind Pressure Humidity
    00:00 -1°C° 0 mm 2 mps 712 mmHg 43%
    01:00 -1°C° 0 mm 2 mps 712 mmHg 43%
    02:00 -1°C° 0 mm 2 mps 712 mmHg 43%
    03:00 -1°C° 0 mm 2 mps 712 mmHg 43%
    04:00 -1°C° 0 mm 2 mps 712 mmHg 43%
    05:00 -1°C° 0 mm 2 mps 711 mmHg 43%
    06:00 -1°C° 0 mm 2 mps 711 mmHg 43%
    07:00 +2°C° 0 mm 1 mps 711 mmHg 41%
    08:00 +4°C° 0 mm 1 mps 712 mmHg 38%
    09:00 +5°C° 0 mm 1 mps 712 mmHg 36%
    10:00 +6°C° 0 mm 1 mps 711 mmHg 34%
    11:00 +8°C° 0 mm 1 mps 711 mmHg 33%
    12:00 +9°C° 0 mm 1 mps 710 mmHg 31%
    13:00 +9°C° 0 mm 1 mps 710 mmHg 32%
    14:00 +9°C° 0 mm 1 mps 710 mmHg 33%
    15:00 +9°C° 0 mm 1 mps 710 mmHg 33%
    16:00 +8°C° 0 mm 1 mps 710 mmHg 37%
    17:00 +6°C° 0 mm 1 mps 710 mmHg 41%
    18:00 +5°C° 0 mm 1 mps 711 mmHg 45%
    19:00 +5°C° 0 mm 1 mps 711 mmHg 46%
    20:00 +4°C° 0 mm 1 mps 711 mmHg 47%
    21:00 +4°C° 0 mm 1 mps 711 mmHg 48%
    22:00 +4°C° 0 mm 1 mps 711 mmHg 49%
    23:00 +3°C° 0 mm 1 mps 711 mmHg 50%

    28 November, Tuesday

    Time Temperature Precipitation Wind Pressure Humidity
    00:00 +3°C° 0 mm 1 mps 711 mmHg 51%
    01:00 +3°C° 0 mm 1 mps 711 mmHg 51%
    02:00 +3°C° 0 mm 1 mps 711 mmHg 52%
    03:00 +2°C° 0 mm 1 mps 711 mmHg 53%
    04:00 +2°C° 0 mm 1 mps 711 mmHg 53%
    05:00 +2°C° 0 mm 1 mps 711 mmHg 54%
    06:00 +2°C° 0 mm 1 mps 711 mmHg 55%
    07:00 +3°C° 0 mm 1 mps 711 mmHg 52%
    08:00 +4°C° 0 mm 1 mps 711 mmHg 48%
    09:00 +5°C° 0 mm 1 mps 712 mmHg 45%
    10:00 +6°C° 0 mm 1 mps 711 mmHg 42%
    11:00 +7°C° 0 mm 1 mps 711 mmHg 40%
    12:00 +7°C° 0 mm 2 mps 711 mmHg 37%
    13:00 +7°C° 0 mm 2 mps 710 mmHg 37%
    14:00 +7°C° 0 mm 2 mps 710 mmHg 38%
    15:00 +7°C° 0 mm 2 mps 710 mmHg 38%
    16:00 +6°C° 0 mm 1 mps 710 mmHg 42%
    17:00 +5°C° 0 mm 1 mps 710 mmHg 47%
    18:00 +4°C° 0 mm 1 mps 711 mmHg 51%
    19:00 +3°C° 0 mm 1 mps 711 mmHg 51%
    20:00 +3°C° 0 mm 1 mps 711 mmHg 52%
    21:00 +3°C° 0 mm 1 mps 711 mmHg 52%
    22:00 +3°C° 0 mm 1 mps 711 mmHg 53%
    23:00 +3°C° 0 mm 1 mps 711 mmHg 53%

    29 November, Wednesday

    Time Temperature Precipitation Wind Pressure Humidity
    00:00 +3°C° 0 mm 1 mps 711 mmHg 54%
    01:00 +3°C° 0 mm 1 mps 711 mmHg 54%
    02:00 +3°C° 0 mm 1 mps 711 mmHg 54%
    03:00 +3°C° 0 mm 1 mps 711 mmHg 53%
    04:00 +3°C° 0 mm 1 mps 711 mmHg 54%
    05:00 +3°C° 0 mm 1 mps 711 mmHg 54%
    06:00 +3°C° 0 mm 1 mps 710 mmHg 54%
    07:00 +4°C° 0 mm 1 mps 711 mmHg 51%
    08:00 +5°C° 0 mm 1 mps 711 mmHg 48%
    09:00 +6°C° 0 mm 1 mps 711 mmHg 45%
    10:00 +7°C° 0 mm 1 mps 710 mmHg 43%
    11:00 +8°C° 0 mm 1 mps 710 mmHg 41%
    12:00 +9°C° 0 mm 1 mps 709 mmHg 39%
    13:00 +9°C° 0.1 mm 1 mps 709 mmHg 42%
    14:00 +9°C° 0.1 mm 1 mps 709 mmHg 44%
    15:00 +9°C° 0.1 mm 1 mps 709 mmHg 47%
    16:00 +8°C° 0.1 mm 1 mps 709 mmHg 51%
    17:00 +8°C° 0.1 mm 1 mps 709 mmHg 54%
    18:00 +7°C° 0.1 mm 1 mps 709 mmHg 58%
    19:00 +7°C° 0.1 mm 1 mps 709 mmHg 60%
    20:00 +7°C° 0.1 mm 1 mps 709 mmHg 62%
    21:00 +7°C° 0.1 mm 1 mps 709 mmHg 65%
    22:00 +6°C° 0.1 mm 1 mps 709 mmHg 66%
    23:00 +6°C° 0.1 mm 1 mps 709 mmHg 68%
    Show more